Regional Weather Roundup
Issued by NWS Green Bay, WI

Home | Current Version | Previous Version | Text Only | Print | Product List | Glossary On
Versions: 1 2 3 4 5 6 7 8 9 10 11 12 13 14 15 16 17 18 19 20 21 22 23 24 25 26 27 28 29 30 31 32 33 34 35 36 37 38 39 40 41 42 43 44 45 46 47 48 49 50
000
ASUS43 KGRB 300600
RWRGRB

NORTH-CENTRAL AND NORTHEAST WISCONSIN REGIONAL WEATHER ROUNDUP
NATIONAL WEATHER SERVICE GREEN BAY WI
100 AM CDT SAT JUL 30 2016

WIZ005-009-010>012-018-019-300700-
NORTH CENTRAL WISCONSIN

CITY           SKY/WX    TMP DP  RH WIND       PRES   REMARKS
IRONWOOD       CLEAR     57  54  88 E3        30.06R
MANITOWISH WTR NOT AVBL
ARBOR VITAE    NOT AVBL
EAGLE RIVER    NOT AVBL
LAND O LAKES   NOT AVBL
RHINELANDER    CLEAR     58  55  90 CALM      30.09S
PHILLIPS       MOCLDY    58  58 100 CALM      30.07S
ANTIGO         NOT AVBL
TOMAHAWK       CLEAR     53  51  95 CALM      30.09R FOG
MERRILL        CLEAR     55  55 100 CALM      30.08S
$$

WIZ013-073-300700-
NORTHEAST WISCONSIN

CITY           SKY/WX    TMP DP  RH WIND       PRES   REMARKS
IRON MOUNTAIN  CLEAR     57  51  80 NW6       30.07F
MARINETTE      CLEAR    N/A N/A N/A N5        30.05S
$$

WIZ017-030-035>037-045-300700-
CENTRAL WISCONSIN

CITY           SKY/WX    TMP DP  RH WIND       PRES   REMARKS
MEDFORD        NOT AVBL
WAUSAU         CLEAR     61  57  87 CALM      30.04F
MOSINEE        NOT AVBL
MARSHFIELD     CLEAR     62  57  83 NE3       30.05S
WISC RAPIDS    PTCLDY    62  56  80 E5        30.04F
STEVENS POINT  NOT AVBL
WAUPACA        NOT AVBL
SHAWANO        NOT AVBL
CLINTONVILLE   MOCLDY    63  55  77 CALM      30.03S
WAUTOMA        CLOUDY    65  61  87 CALM      30.03S
$$

WIZ038-039-048-051-300700-
FOX VALLEY

CITY           SKY/WX    TMP DP  RH WIND       PRES   REMARKS
NWS GREEN BAY  PTCLDY    64  59  83 NE6       30.02F
APPLETON       CLOUDY    64  50  59 NE3       30.01S
OSHKOSH        CLOUDY    70  57  63 E8        30.01S
FOND DU LAC    CLOUDY    68  56  65 E7        30.01S
$$

WIZ022-050-052-300700-
EAST CENTRAL WISCONSIN

CITY           SKY/WX    TMP DP  RH WIND       PRES   REMARKS
EPHRAIM        FAIR      64  59  86 E3        30.04S
WASHINGTON ISL NOT AVBL
STURGEON BAY   CLEAR     66  59  78 NE6       30.04S
MANITOWOC      NOT AVBL
SHEBOYGAN      PTCLDY    62  59  90 NE3       30.01S
$$

LMZ563-521-522-541>543-300700-
LAKESHORE

STATION/POSITION TIME  TEMP    WIND        PRES    VSBY  WAVE
                       AIR SEA DIR/SP/G                  HT/PER
                 (UTC) (F)     (DEG/KT/KT) (MB)    (MI)  (FT/S)
SHEBOYGAN LKSHOR 0500   66     350/  9/ 10 1016.3R
KEWAUNEE LKSHORE 0500   67      20/  4/  7 1016.1F
ALGOMA MARINA    0513           40/  8/ 12   N/A
NORTHPORT PIER   0500   71      70/ 10/ 12 1017.3
N MID LAKE BUOY  0450   70 70   90/ 12/ 14 1016.8S         1/ 3
SISTER BAY LKSHO 0506   66      70/  1/  3   N/A
CHAMBERS ISLAND  0540   70      40/  8/ 10 1017.3S
MENOMINEE LKSHOR 0500   71      40/ 12/ 13 1016.3F
$$



USA.gov is the U.S. government's official web portal to all federal, state and local government web resources and services.